Albuquerque, NM

11:11 AM MDT on May 24, 2017 (GMT -0600)
Albuquerque International Sunport

Weather History for KABQ - June, 2013

Change the Weather History Date:

Tuesday, June 11, 2013

  Actual Average Record
Temperature  
Mean Temperature 85 °F 74 °F  
Max Temperature 101 °F 88 °F 101 °F (1981)
Min Temperature 68 °F 60 °F 40 °F (1913)
Degree Days  
Heating Degree Days 0 0  
Month to date heating degree days 0 0  
Since 1 June heating degree days 0 0  
Since 1 July heating degree days 3894 4175  
Cooling Degree Days 20 9  
Month to date cooling degree days 145 83  
Year to date cooling degree days 262 181  
Since 1 June cooling degree days 145 83  
Growing Degree Days 34 (Base 50)    
Moisture  
Dew Point 23 °F    
Average Humidity 14    
Maximum Humidity 22    
Minimum Humidity 5    
Precipitation  
Precipitation 0.00 in 0.02 in 1.40 in (1935)
Month to date precipitation T 0.16  
Year to date precipitation 0.68 2.70  
Snow  
Snow 0.00 in - - ()
Month to date snowfall 0.0  
Since 1 June snowfall 0.0  
Since 1 July snowfall 3.5  
Snow Depth 0.00 in    
Sea Level Pressure  
Sea Level Pressure 29.78 in    
Wind  
Wind Speed 6 mph (WSW)    
Max Wind Speed 22 mph    
Max Gust Speed 26 mph    
Visibility 10 miles    
Events      
T = Trace of Precipitation, MM = Missing Value Source: NWS Daily Summary

Daily Weather History Graph

Daily Weather History Graph

Search for Another Location

Airport or City:

Trip Planner

Search our weather history database for the weather conditions in past years. The results will help you decide how hot, cold, wet, or windy it might be!

Date:

Astronomy

Jun. 11, 2013 Rise Set
Actual Time 5:51 AM MDT 8:20 PM MDT
Civil Twilight 5:22 AM MDT 8:50 PM MDT
Nautical Twilight 4:45 AM MDT 9:26 PM MDT
Astronomical Twilight 4:05 AM MDT 10:07 PM MDT
Moon 8:32 AM MDT (6/11) 10:31 PM MDT (6/11)
Length of Visible Light 15h 28m
Length of Day
14h 28m
Waxing Crescent, 8% of the Moon is Illuminated
Jun 11
Waxing Crescent
Jun 16
First Quarter
Jun 23
Full
Jun 29
Last Quarter
Jul 8
New

Hourly Weather History & Observations

Time (MDT) Temp. Dew Point Humidity Pressure Visibility Wind Dir Wind Speed Gust Speed Precip Events Conditions
12:11 AM 87.8 °F 26.6 °F 11% 30.06 in 10.0 mi SSW 11.5 mph - N/A   Mostly Cloudy
12:52 AM 87.1 °F 23.0 °F 10% 29.74 in 10.0 mi West 11.5 mph - N/A   Scattered Clouds
1:52 AM 84.0 °F 21.9 °F 10% 29.77 in 10.0 mi SSE 8.1 mph - N/A   Scattered Clouds
2:52 AM 79.0 °F 33.1 °F 19% 29.78 in 10.0 mi Calm Calm - N/A   Partly Cloudy
3:52 AM 77.0 °F 27.0 °F 16% 29.78 in 10.0 mi Calm Calm - N/A   Clear
4:52 AM 73.0 °F 28.9 °F 20% 29.80 in 10.0 mi Variable 4.6 mph - N/A   Clear
5:52 AM 68.0 °F 28.9 °F 23% 29.83 in 10.0 mi ESE 6.9 mph - N/A   Partly Cloudy
6:52 AM 73.0 °F 24.1 °F 16% 29.86 in 10.0 mi South 6.9 mph - N/A   Partly Cloudy
7:52 AM 73.9 °F 26.1 °F 17% 29.88 in 10.0 mi East 3.5 mph - N/A   Partly Cloudy
8:52 AM 80.6 °F 24.8 °F 13% 29.87 in 10.0 mi Calm Calm - N/A   Partly Cloudy
9:52 AM 84.2 °F 24.8 °F 11% 29.85 in 10.0 mi NW 4.6 mph - N/A   Partly Cloudy
10:52 AM 86.0 °F 24.8 °F 11% 29.83 in 10.0 mi SSW 3.5 mph - N/A   Scattered Clouds
11:52 AM 89.6 °F 24.8 °F 10% 29.81 in 10.0 mi SSW 4.6 mph - N/A   Scattered Clouds
12:52 PM 91.4 °F 24.8 °F 9% 29.79 in 10.0 mi South 4.6 mph - N/A   Scattered Clouds
1:52 PM 93.2 °F 24.8 °F 9% 29.77 in 10.0 mi Variable 4.6 mph - N/A   Scattered Clouds
2:52 PM 96.1 °F 24.1 °F 8% 29.74 in 10.0 mi Calm Calm - N/A   Partly Cloudy
3:52 PM 97.0 °F 24.1 °F 7% 29.73 in 10.0 mi Variable 5.8 mph - N/A   Scattered Clouds
4:52 PM 98.1 °F 21.9 °F 7% 29.70 in 10.0 mi NW 6.9 mph 17.3 mph N/A   Scattered Clouds
5:52 PM 99.0 °F 17.1 °F 5% 29.70 in 10.0 mi West 13.8 mph 26.5 mph N/A   Scattered Clouds
6:52 PM 98.1 °F 15.1 °F 5% 29.68 in 10.0 mi West 18.4 mph 25.3 mph N/A   Scattered Clouds
7:52 PM 95.0 °F 17.1 °F 6% 29.70 in 10.0 mi WNW 13.8 mph - N/A   Scattered Clouds
8:52 PM 91.9 °F 16.0 °F 6% 29.71 in 10.0 mi NW 8.1 mph - N/A   Scattered Clouds
9:52 PM 89.1 °F 17.1 °F 7% 29.75 in 10.0 mi North 3.5 mph - N/A   Scattered Clouds
10:52 PM 86.0 °F 16.0 °F 7% 29.77 in 10.0 mi North 5.8 mph - N/A   Partly Cloudy
11:52 PM 84.0 °F 17.1 °F 8% 29.78 in 10.0 mi West 6.9 mph - N/A   Clear